Бекабад

Узбекистан     40˚37′59″N   71˚11′13″E
темп.,
°C
ветер,
м/с
пор.,
м/с
влажн.,
%
обл.,
%
осадки,
мм/ч
давл.,
гПа
погр.,
м
6 декабря, вс
вс623:00+4˚св2352100 0.0 103276
02:00+2˚вюв125294 0.0 103226
05:00+2˚в125097 0.0 103227
08:00+2˚всв124896 0.0 103323
11:00+5˚всв223562 0.0 1031488
14:00+7˚в22350 0.0 1029795
17:00+6˚всв114232 0.0 103023
20:00+4˚всв1246100 0.0 103023
7 декабря, пн
пн723:00+3˚всв2352100 0.0 102938
02:00+2˚всв2259100 0.0 102823
05:00+2˚всв2262100 0.0 102635
08:00+2˚всв1161100 0.0 102625
11:00+5˚вюв1147100 0.0 1026375
14:00+7˚юз114164 0.0 1025823
17:00+6˚зюз234882 0.0 102785
20:00+4˚зюз3556100 0.0 1029241
8 декабря, вт
вт823:00+3˚зюз2460100 0.0 1029198
02:00+3˚юз2364100 0.0 1029251
05:00+2˚зюз1276100 0.0 1029203
08:00+2˚зюз1283100 0.0 1030143
11:00+4˚зюз1167100 0.0 1029546
14:00+5˚юз2258100 0.0 1028872
17:00+4˚зюз236799 0.0 1030155
20:00+3˚зюз2475100 0.0 1032218
9 декабря, ср
ср923:00+1˚зюз227883 0.0 103358
02:00+1˚з127696 0.0 103439
05:00+1˚зсз017698 0.0 103322
08:00в017770 0.0 103422
11:00+4˚всв116440 0.0 1031431
14:00+6˚в11510 0.0 1029732
17:00+5˚всв11570 0.0 103028
20:00+3˚всв12660 0.0 103024
10 декабря, чт
чт1023:00+2˚св12720 0.0 102923
02:00+1˚всв12710 0.0 102922
05:00всв12792 0.0 102922
08:00всв228569 0.0 103025
11:00+4˚всв226182 0.0 1028353
14:00+7˚всв114471 0.0 1028625
17:00+5˚св124768 0.0 102924
20:00+3˚св12496 0.0 103122